Temperature
15 15 15 15 15 15 15 14 14 14 14 14 14 14 13 13 13 13 13 13 13 13 12 12 12 12 12 12 12 12 12 12 12 12 12 11 11 11 11 11 11 11 11
15 15 15 15 15 15 14 14 14 14 14 14 13 13 13 13 13 13 13 13 13 12 12 12 12 12 12 12 12 12 12 12 11 11 11 11 11 11 11 11 11 11 11
15 15 15 15 15 14 14 14 14 13 13 13 13 13 13 13 13 13 12 12 12 12 12 12 12 12 12 12 12 12 12 11 11 11 11 11 11 11 11 11 11 11 11
15 15 15 14 14 14 14 14 13 13 13 13 13 13 13 12 12 12 12 12 12 12 12 12 12 11 11 11 11 11 11 11 11 11 11 11 11 11 11 11 11 11 11
14 14 14 14 14 14 13 13 13 13 13 13 13 12 12 12 12 12 12 12 12 12 11 11 11 11 11 11 11 11 11 11 11 11 11 10 10 11 11 10 10 10 10
14 14 14 14 13 13 13 13 13 13 12 12 12 12 12 12 12 11 11 11 11 11 11 11 11 11 11 11 11 11 10 10 10 10 10 10 10 10 10 10 10 10 10
14 14 13 13 13 13 13 13 12 12 12 12 12 12 11 11 11 11 11 11 11 11 11 11 11 10 10 10 10 10 10 10 10 10 10 10 10 10 10 10 10 10 10
13 13 13 13 12 12 12 12 12 12 12 12 11 11 11 11 11 11 11 11 11 11 10 10 10 10 10 10 10 10 10 10 10 10 10 10 10 10 9 9 9 9 9
13 13 13 13 12 12 12 12 12 12 11 11 11 11 11 11 10 10 10 10 10 10 10 10 10 10 10 10 10 10 10 10 10 10 10 9 9 9 9 9 9 9 9
13 13 12 12 12 12 12 12 11 11 11 11 11 10 10 10 10 10 10 10 10 10 10 10 10 10 9 9 9 9 9 9 9 9 9 9 9 9 9 9 9 8 8
13 12 12 12 12 12 11 11 11 11 11 11 10 10 10 10 10 10 10 10 10 9 9 9 9 9 9 9 9 9 9 9 9 9 9 9 9 9 9 8 8 8 8
12 12 12 12 11 11 11 11 11 10 10 10 10 10 10 10 9 9 9 9 9 9 9 9 9 9 9 9 9 9 9 9 9 9 9 9 9 9 8 8 8 8 8
12 11 11 11 11 11 11 10 10 10 10 10 10 9 9 9 9 9 9 9 9 9 9 9 9 8 8 8 8 8 8 8 8 8 8 8 8 8 8 8 8 8 7
11 11 11 11 10 10 10 10 10 9 9 9 9 9 9 9 9 9 9 9 9 9 8 8 8 8 8 8 8 8 8 8 8 8 8 8 8 8 8 8 7 7 7
11 10 10 10 10 10 10 9 9 9 9 9 9 8 8 8 8 8 8 8 8 8 8 8 8 8 8 8 8 8 7 7 7 7 7 7 7 7 7 7 7 7 7
10 10 10 10 10 9 9 9 9 8 8 8 8 8 8 8 8 8 8 8 8 7 7 7 7 7 7 7 7 7 7 7 7 7 7 7 7 6 6 6 6 6 6
9 9 9 9 9 9 9 9 8 8 8 8 7 7 7 7 7 7 7 7 7 7 7 7 7 6 6 6 6 6 6 6 6 6 6 6 6 6 6 6 6 5 5
9 9 9 9 9 8 8 8 8 8 8 7 7 7 7 6 6 6 6 6 6 6 6 6 6 6 6 6 6 6 6 6 5 5 5 5 5 5 5 5 5 5 5
8 8 8 8 8 8 8 7 7 7 7 7 7 7 6 6 6 6 5 5 5 6 6 6 6 5 5 5 5 5 5 5 5 5 5 5 5 5 5 5 5 5 5
8 8 8 8 8 7 7 7 7 7 6 6 6 6 6 6 5 5 5 5 5 5 5 5 5 5 5 5 5 5 5 4 4 5 5 4 4 4 4 4 4 4 4
8 7 7 7 7 7 7 6 6 6 6 6 6 6 5 5 5 5 5 5 4 4 4 4 5 4 4 4 4 4 4 4 4 4 4 4 4 4 4 4 4 4 4
7 7 7 7 6 6 6 6 6 6 5 5 5 5 5 5 5 5 4 4 4 4 4 4 4 4 4 4 4 4 4 4 4 4 4 4 4 4 3 3 3 3 3
6 6 6 6 6 6 6 6 5 5 5 5 5 5 4 4 4 4 4 4 4 4 4 4 4 4 4 3 3 3 3 3 3 3 3 3 3 3 3 3 3 3 3
6 6 6 6 5 5 5 5 5 5 5 4 4 4 4 4 4 4 4 4 4 3 3 3 3 3 3 3 3 3 3 3 3 3 3 3 3 3 3 3 3 3 2
5 5 5 5 5 5 5 4 4 4 4 4 4 4 4 3 3 3 3 3 3 3 3 3 3 3 3 3 3 3 3 3 3 3 3 2 2 3 2 2 2 2 2
5 5 4 4 4 4 4 4 4 4 3 3 3 3 3 3 3 3 3 3 3 3 3 3 3 3 3 2 2 2 2 2 2 2 2 2 2 2 2 2 2 2 2
Wind_Speed
5 4 3 3 3 3 3 3 3 3 3 3 4 4 3 3 3 4 3 3 3 2 2 3 2 2 2 2 2 2 2 2 3 2 1 1 1 1 1 2 2 2 3
4 4 4 3 2 3 3 3 3 3 3 3 3 3 4 3 4 4 4 4 4 4 3 3 2 2 2 2 2 3 2 3 3 3 1 1 2 2 1 1 2 2 3
4 3 3 3 3 3 4 3 3 3 3 2 3 3 4 4 4 4 4 4 4 4 4 4 3 3 2 2 3 3 2 2 2 2 2 1 1 1 1 1 1 2 3
4 4 4 4 4 4 3 3 3 3 3 3 3 3 3 3 3 4 4 4 4 3 3 4 4 4 4 4 3 3 3 2 2 2 1 1 1 1 1 1 2 1 2
4 4 4 3 3 2 2 2 2 2 3 3 3 2 2 3 3 3 4 4 4 4 3 3 4 5 5 4 3 3 3 3 2 2 2 1 1 1 2 2 2 2 3
5 5 3 2 2 2 2 2 2 2 2 3 3 3 3 3 4 5 4 4 4 4 4 3 4 4 4 5 5 5 5 4 4 3 3 3 4 3 2 2 2 1 2
4 3 3 3 3 3 3 2 3 3 3 3 3 3 3 3 4 4 5 4 4 4 4 3 3 2 3 3 3 3 4 5 6 5 5 5 5 5 4 3 3 3 4
4 4 3 3 3 3 3 3 3 2 3 3 3 3 3 3 3 4 4 4 3 3 4 4 3 3 3 3 3 2 2 3 4 4 5 6 5 5 5 5 4 2 2
4 4 4 4 4 4 3 3 3 2 2 3 2 3 3 3 3 3 3 3 2 3 3 3 3 4 4 3 3 2 2 3 3 4 4 4 5 5 5 3 2 1 2
6 5 5 5 5 5 5 3 2 2 2 2 2 2 2 2 2 3 4 3 2 2 2 2 3 3 3 4 4 3 3 4 2 2 2 3 2 2 4 4 4 3 2
4 4 4 4 5 4 3 2 3 3 3 2 2 1 1 1 1 2 4 3 3 3 2 2 2 3 3 3 3 3 5 3 2 2 1 1 1 1 1 2 3 4 3
3 3 3 3 3 3 4 3 3 4 3 2 2 1 1 1 1 1 2 3 4 3 3 3 3 3 2 2 2 2 2 2 1 1 1 1 1 2 2 2 2 3 3
2 2 3 3 3 3 4 4 3 3 3 2 2 1 1 1 1 1 1 2 3 3 3 3 2 2 2 2 1 1 1 1 1 1 2 2 2 2 2 1 1 1 1
2 2 2 3 3 3 3 4 4 4 3 3 2 2 1 1 1 1 1 1 1 2 1 1 1 1 1 0 0 1 1 2 2 2 2 2 1 1 1 1 1 1 1
2 2 2 3 3 3 3 3 4 4 5 4 3 3 3 2 3 2 1 1 1 2 2 1 1 1 0 1 1 1 1 1 1 1 1 1 1 1 1 1 1 1 1
2 2 2 2 2 3 3 2 1 3 4 4 4 4 3 2 2 2 1 1 1 3 3 2 1 1 2 2 1 1 1 1 2 2 2 2 2 2 2 1 1 2 2
4 3 3 3 3 3 3 3 2 0 1 2 2 2 2 2 2 2 2 1 2 3 2 2 2 2 2 2 2 2 2 2 1 2 2 2 2 2 1 2 2 2 3
3 3 4 3 3 3 3 3 3 3 2 1 2 2 2 3 3 2 2 2 1 1 1 2 3 3 2 2 2 2 2 1 1 1 1 1 1 2 2 2 3 3 3
3 2 3 3 3 3 3 3 2 3 2 2 1 1 2 2 2 2 3 2 2 2 2 2 3 3 3 3 3 2 2 2 2 2 2 2 2 1 2 2 3 4 3
2 4 4 3 3 3 3 3 3 3 2 2 2 2 1 1 1 1 2 2 2 3 3 3 3 3 3 3 3 3 2 2 2 2 2 3 2 2 3 3 3 3 3
2 2 4 3 3 3 3 4 4 3 3 3 3 3 4 3 3 4 3 3 4 4 4 4 4 4 3 3 3 3 3 3 3 3 3 3 3 3 3 3 3 3 3
2 2 2 3 3 3 3 4 3 3 4 4 3 3 4 3 3 3 4 4 5 4 4 4 4 4 4 4 4 4 4 4 4 4 4 3 3 3 3 3 3 2 2
2 2 2 2 2 3 3 3 3 3 4 4 3 3 3 4 4 4 5 5 4 4 4 5 5 5 5 5 5 5 5 5 5 5 4 4 3 3 3 3 3 3 3
3 3 3 2 2 2 3 3 3 4 4 4 4 4 4 4 4 5 5 4 4 5 5 5 6 6 7 5 5 6 6 6 5 5 5 4 4 4 3 3 3 3 4
3 3 3 2 3 3 3 4 4 4 4 4 4 4 4 4 4 4 4 4 5 5 6 6 5 6 7 7 6 6 7 7 6 5 4 4 4 4 4 4 3 3 3
3 3 2 2 2 3 3 3 4 4 4 4 4 4 4 4 4 4 4 4 4 5 5 5 6 7 7 7 8 8 8 7 7 6 4 4 4 3 3 3 4 3 3
Wind_Direction
202 208 213 219 213 200 205 218 218 219 204 201 199 192 195 197 187 178 184 172 175 184 182 183 208 191 176 177 170 169 171 163 208 259 258 264 247 260 298 284 286 293 295
204 201 210 210 192 196 219 226 214 214 209 203 196 192 196 198 191 185 192 183 181 189 196 189 210 190 187 186 180 187 190 186 188 229 257 257 248 235 247 266 284 282 278
189 189 198 197 194 208 220 222 212 208 202 189 191 198 200 199 194 196 191 187 189 196 196 197 207 186 204 206 199 202 202 193 180 190 240 248 252 217 227 274 285 295 279
181 185 199 209 211 215 212 211 210 197 185 190 201 205 200 193 190 195 189 187 190 199 203 206 207 199 208 209 208 207 198 186 174 175 224 255 252 245 163 235 282 285 281
180 189 208 214 210 203 199 202 200 197 194 184 184 192 193 189 197 189 190 191 192 202 212 220 222 215 215 208 206 201 190 189 183 188 212 238 245 231 229 220 235 275 277
187 200 202 187 183 190 194 186 175 183 181 162 176 186 201 212 201 187 181 188 192 199 215 234 235 223 229 227 223 207 192 189 197 200 215 225 235 229 223 217 204 229 271
192 197 191 183 186 199 192 173 186 188 175 180 189 191 212 223 206 195 190 183 193 204 212 222 232 230 215 216 225 218 218 216 206 201 211 226 226 219 205 213 218 222 237
188 193 192 184 193 189 176 186 198 183 179 195 195 197 205 226 205 200 190 181 191 209 215 215 216 232 219 200 197 206 232 238 228 220 221 231 231 221 210 209 212 230 259
195 200 198 190 188 182 189 201 195 174 183 189 184 183 193 230 210 187 171 178 198 225 230 220 215 224 230 191 172 196 240 262 251 241 251 251 243 226 201 164 165 192 262
209 206 199 190 187 191 196 196 185 169 175 167 165 172 181 215 206 178 157 168 190 220 239 240 234 231 229 193 183 193 226 252 256 265 289 292 283 221 196 197 193 201 239
207 194 190 189 189 187 181 173 159 149 142 140 142 150 162 220 223 185 164 168 184 191 212 237 248 236 218 199 195 207 226 221 210 207 236 270 314 259 233 219 207 202 214
182 179 182 183 181 169 158 155 150 144 141 140 131 97 344 301 297 222 194 186 173 177 211 230 237 218 206 201 207 233 216 190 172 171 187 244 247 251 255 252 226 215 222
156 173 176 169 165 159 158 155 146 147 151 158 158 183 268 303 304 290 240 206 193 188 216 215 212 203 204 212 220 195 164 159 162 174 214 241 247 247 249 263 268 246 294
163 181 175 165 162 157 157 159 157 163 167 171 176 205 238 279 293 287 274 249 193 200 222 234 148 119 123 246 239 220 203 192 195 208 220 234 253 247 252 241 243 247 270
166 178 175 175 173 167 164 171 171 178 175 177 193 197 198 231 250 217 174 204 199 190 152 101 76 75 50 0 333 277 240 203 215 221 206 214 242 261 274 267 240 228 235
175 194 193 179 173 167 165 159 157 164 167 170 175 179 210 224 214 178 176 167 161 155 134 137 178 202 221 238 236 249 253 239 229 216 216 214 226 242 258 271 260 231 241
191 195 188 179 176 175 175 170 171 153 139 161 174 188 190 192 178 168 165 130 116 133 140 182 206 219 229 236 235 231 239 249 229 209 222 237 235 237 248 250 251 253 257
196 194 184 186 185 183 184 186 182 180 193 251 250 226 207 199 185 178 155 116 86 139 195 213 222 226 227 235 239 242 248 246 228 226 230 241 241 237 253 250 242 244 255
190 194 188 181 181 180 176 176 182 188 198 219 267 265 233 210 181 171 147 155 201 223 234 235 230 226 227 229 235 237 233 234 233 228 232 238 238 234 253 267 264 254 253
200 192 178 174 171 171 171 177 189 199 207 217 228 236 223 158 193 214 205 208 215 228 231 236 235 232 229 230 228 227 228 234 234 233 238 240 237 231 242 254 261 264 263
183 188 180 172 177 181 185 194 200 204 215 226 238 238 204 198 213 224 228 227 228 234 234 234 233 233 231 230 226 222 222 233 235 234 235 235 230 236 245 247 252 256 264
165 171 177 186 186 189 193 197 200 207 220 230 244 246 225 213 222 229 235 238 235 235 235 233 233 232 227 225 222 223 225 232 235 232 232 232 230 235 237 241 252 258 261
163 168 177 191 190 194 197 198 205 215 224 229 232 234 230 229 230 234 239 240 236 237 240 234 234 237 238 234 230 224 227 233 233 228 227 228 229 234 232 237 244 254 255
171 176 183 190 194 199 208 215 218 225 230 236 238 237 234 235 238 242 245 244 240 241 241 236 236 238 237 237 240 239 238 243 243 236 222 220 225 229 229 234 237 246 249
173 178 184 191 200 210 219 224 226 229 233 236 239 241 242 242 247 250 251 251 244 241 242 241 242 240 236 233 238 245 247 242 240 239 228 219 222 226 229 231 236 245 248
179 183 190 194 206 216 221 228 232 232 233 238 238 237 237 241 249 254 255 257 254 248 249 248 245 241 240 238 241 243 244 243 241 235 221 215 213 224 227 233 237 241 242
Height
1515 1516 1517 1517 1518 1519 1519 1520 1520 1521 1522 1522 1523 1524 1524 1525 1526 1526 1527 1527 1528 1528 1529 1529 1530 1531 1531 1531 1532 1532 1532 1532 1532 1532 1533 1533 1533 1533 1533 1533 1533 1533 1533
1512 1513 1513 1514 1514 1515 1516 1517 1517 1518 1518 1519 1520 1520 1521 1522 1522 1523 1523 1524 1525 1525 1526 1526 1527 1528 1528 1529 1529 1529 1529 1529 1530 1529 1530 1530 1530 1530 1531 1531 1531 1530 1530
1508 1509 1510 1510 1511 1511 1512 1513 1513 1514 1515 1515 1516 1517 1517 1518 1519 1519 1520 1521 1521 1522 1523 1523 1524 1524 1525 1525 1526 1526 1526 1527 1527 1527 1526 1527 1527 1527 1527 1528 1528 1528 1528
1505 1505 1506 1506 1507 1508 1508 1509 1510 1510 1511 1511 1512 1513 1514 1514 1515 1516 1516 1517 1518 1518 1519 1520 1520 1521 1521 1522 1522 1523 1523 1523 1524 1524 1524 1524 1524 1524 1524 1524 1524 1525 1525
1501 1502 1502 1503 1504 1504 1505 1506 1506 1507 1507 1508 1508 1509 1510 1510 1511 1512 1512 1513 1514 1515 1515 1516 1517 1517 1518 1519 1519 1519 1520 1520 1520 1520 1520 1520 1520 1521 1521 1521 1521 1521 1521
1497 1498 1499 1499 1500 1501 1501 1502 1503 1503 1504 1504 1505 1505 1506 1506 1507 1508 1509 1510 1510 1511 1512 1513 1513 1514 1514 1515 1515 1516 1517 1517 1516 1517 1517 1517 1517 1517 1518 1518 1517 1517 1517
1494 1494 1495 1496 1496 1497 1498 1498 1499 1500 1500 1501 1501 1502 1502 1503 1504 1505 1506 1506 1507 1507 1508 1509 1510 1510 1511 1511 1512 1512 1513 1513 1514 1514 1514 1513 1514 1514 1514 1514 1514 1514 1514
1491 1491 1492 1493 1493 1494 1494 1495 1496 1496 1497 1497 1497 1498 1499 1500 1501 1502 1502 1503 1503 1504 1505 1505 1506 1507 1507 1508 1508 1508 1509 1509 1510 1510 1510 1510 1511 1511 1511 1511 1510 1510 1510
1487 1488 1489 1490 1490 1491 1491 1492 1492 1493 1493 1494 1494 1495 1496 1497 1498 1498 1499 1499 1500 1500 1501 1502 1502 1503 1504 1504 1504 1504 1505 1505 1506 1506 1506 1506 1507 1507 1507 1507 1506 1506 1505
1484 1485 1486 1487 1487 1487 1488 1489 1489 1490 1490 1491 1492 1492 1493 1493 1494 1495 1495 1496 1496 1497 1497 1498 1499 1499 1500 1500 1501 1501 1501 1501 1502 1502 1502 1503 1503 1503 1503 1503 1502 1502 1501
1481 1482 1483 1483 1484 1484 1485 1486 1486 1487 1488 1488 1489 1489 1489 1490 1491 1491 1491 1492 1492 1493 1494 1494 1495 1496 1496 1496 1497 1497 1498 1498 1498 1498 1498 1498 1498 1499 1498 1498 1498 1498 1498
1478 1479 1480 1480 1481 1481 1482 1483 1483 1484 1484 1485 1486 1486 1486 1487 1488 1488 1488 1489 1489 1490 1490 1491 1491 1492 1492 1493 1493 1493 1494 1494 1494 1494 1494 1494 1494 1494 1494 1494 1494 1494 1494
1475 1476 1477 1477 1478 1478 1479 1479 1480 1480 1481 1482 1482 1483 1483 1484 1484 1485 1485 1485 1486 1486 1487 1487 1488 1488 1489 1489 1489 1490 1490 1490 1490 1490 1490 1490 1491 1491 1491 1490 1490 1490 1490
1472 1473 1473 1474 1475 1475 1476 1476 1477 1477 1478 1478 1479 1480 1480 1480 1481 1481 1481 1481 1482 1482 1483 1484 1485 1485 1485 1485 1485 1486 1486 1486 1486 1487 1487 1487 1487 1487 1487 1487 1486 1486 1486
1470 1470 1471 1471 1472 1472 1473 1474 1474 1475 1476 1476 1477 1477 1477 1477 1478 1478 1478 1478 1478 1479 1480 1480 1480 1481 1481 1481 1481 1481 1482 1482 1482 1483 1483 1483 1483 1483 1483 1483 1482 1482 1481
1467 1468 1468 1468 1469 1470 1470 1471 1472 1473 1473 1474 1475 1475 1475 1475 1475 1475 1475 1475 1475 1476 1476 1476 1476 1476 1477 1477 1477 1477 1477 1478 1478 1479 1479 1479 1479 1479 1478 1478 1478 1478 1477
1465 1465 1465 1466 1466 1467 1467 1468 1469 1470 1471 1471 1472 1472 1472 1472 1472 1472 1472 1472 1472 1472 1472 1472 1472 1472 1473 1473 1473 1473 1473 1474 1474 1474 1474 1474 1475 1475 1474 1474 1474 1474 1473
1462 1462 1462 1462 1463 1464 1464 1465 1466 1467 1467 1467 1468 1469 1469 1469 1469 1469 1469 1469 1468 1468 1468 1468 1468 1469 1469 1469 1469 1469 1470 1470 1470 1470 1470 1470 1470 1470 1470 1470 1470 1470 1470
1459 1459 1459 1459 1460 1461 1461 1462 1463 1463 1463 1464 1464 1465 1465 1465 1466 1466 1465 1465 1464 1464 1464 1465 1465 1465 1466 1466 1466 1466 1466 1466 1466 1466 1466 1466 1467 1466 1466 1466 1466 1466 1466
1456 1456 1456 1456 1457 1457 1458 1459 1460 1460 1460 1460 1460 1461 1461 1461 1461 1461 1461 1461 1460 1460 1461 1461 1461 1461 1462 1462 1462 1462 1462 1462 1462 1462 1462 1463 1463 1463 1462 1462 1462 1462 1461
1452 1453 1453 1453 1453 1454 1455 1456 1456 1456 1456 1456 1457 1457 1457 1457 1457 1457 1457 1457 1456 1456 1457 1457 1457 1457 1457 1458 1458 1458 1458 1458 1459 1459 1459 1459 1458 1458 1458 1458 1458 1458 1457
1449 1449 1449 1449 1450 1451 1451 1452 1452 1453 1453 1453 1453 1454 1454 1454 1453 1453 1453 1453 1453 1453 1453 1453 1453 1453 1453 1453 1453 1454 1454 1454 1454 1455 1455 1454 1454 1455 1455 1454 1454 1454 1453
1446 1446 1446 1446 1447 1447 1448 1448 1449 1449 1449 1449 1450 1450 1450 1450 1449 1449 1449 1449 1448 1448 1449 1449 1448 1448 1448 1449 1449 1449 1449 1449 1450 1450 1450 1450 1450 1450 1450 1450 1450 1449 1449
1443 1443 1443 1443 1443 1444 1444 1444 1445 1445 1445 1446 1446 1445 1445 1445 1445 1445 1444 1444 1444 1444 1444 1444 1444 1444 1444 1444 1444 1445 1445 1445 1445 1446 1446 1446 1446 1446 1445 1445 1445 1445 1445
1440 1440 1440 1440 1440 1440 1440 1441 1441 1441 1441 1441 1441 1441 1441 1441 1440 1440 1440 1439 1439 1439 1439 1439 1439 1439 1439 1439 1439 1440 1440 1440 1441 1441 1441 1441 1441 1441 1441 1441 1441 1441 1440
1436 1436 1436 1436 1436 1436 1436 1436 1436 1437 1437 1437 1437 1437 1436 1436 1436 1435 1435 1435 1434 1434 1434 1434 1434 1434 1434 1434 1434 1435 1435 1435 1436 1436 1436 1436 1436 1436 1436 1436 1436 1436 1436